Regional Weather Roundup
Issued by NWS Sterling, VA

Home | Current Version | Previous Version | Graphics & Text | Print | Product List | Glossary On
Versions: 1 2 3 4 5 6 7 8 9 10 11 12 13 14 15 16 17 18 19 20 21 22 23 24 25 26 27 28 29 30 31 32 33 34 35 36 37 38 39 40 41 42 43 44 45 46 47 48 49 50
000
ASUS41 KLWX 291910
RWRLWX

REGIONAL WEATHER ROUNDUP
NATIONAL WEATHER SERVICE BALTIMORE MD/WASHINGTON DC
300 PM EDT WED JUL 29 2015

Note: "FAIR" indicates few or no clouds below 12,000 feet
with no significant weather and/or obstructions to visibility.
 TC=TEMPERATURE CELSIUS

 * =Non NWS site. Station does not report precipitation (e.g. rain,
    snow, etc.), thunder, or fog.

DCZ001-MDZ009-015-VAZ040>042-051-053>054-292000-
WASHINGTON METRO

CITY           SKY/WX    TMP DP  RH WIND       PRES   REMARKS
WASHINGTON NAT PTSUNNY   90  74  59 S10       29.97F HX  99
DULLES         PTSUNNY   86  74  67 S9        29.97F HX  94
ANDREWS AFB    MOSUNNY   88  73  59 S13G18    29.97F HX  95
FT BELVOIR     PTSUNNY   89  74  62 S8G16     29.97F HAZE    HX  97
QUANTICO       PTSUNNY   87  72  60 SW12      29.98F HX  93
COLLEGE PARK*  PTSUNNY   88  72  58 S6        29.97S HX  94
LEESBURG*      PTSUNNY   90  77  66 S12G21    29.98F HX 102
MANASSAS*      CLOUDY    82  77  83 SW7       29.98F HX  91
GAITHERSBURG*  PTSUNNY   88  73  62 SW5       30.02F HX  96

$$

MDZ006>007-011-014-292000-
BALTIMORE METRO

CITY           SKY/WX    TMP DP  RH WIND       PRES   REMARKS
BWI AIRPORT    PTSUNNY   81  76  84 E7        29.98F
MD SCIENCE CTR   N/A     78  74  87 MISG      30.00S
MARTIN STATE   PTSUNNY   84  75  74 S6        30.00S HX  92
ANNAPOLIS      LGT RAIN  78  74  87 S6        29.99F FOG
FORT MEADE*    PTSUNNY   84  73  70 SE9       30.00F HX  91

$$

MDZ012-015-019>023-292000-
MARYLAND EASTERN SHORE

CITY           SKY/WX    TMP DP  RH WIND       PRES   REMARKS
OCEAN CITY     PTSUNNY   85  74  69 S8        30.00F HX  92
SALISBURY      PTSUNNY   87  74  64 SW10      29.99F HX  95
BAY BRIDGE AP*   N/A     82  72  69 S3        29.98F
CAMBRIDGE*     PTSUNNY   88  70  55 SW6       29.99S HX  92

$$

MDZ017>025-292000-
SOUTHERN MARYLAND

CITY           SKY/WX    TMP DP  RH WIND       PRES   REMARKS
PATUXENT RIVER PTSUNNY   83  73  72 SW9       29.99F
ST INIGOES     LGT RAIN  80  75  84 CALM      29.99F
LEONARDTOWN*   MOSUNNY   86  70  58 CALM      30.01S HX  90

$$

MDZ003>005-292000-
NORTH CENTRAL MARYLAND

CITY           SKY/WX    TMP DP  RH WIND       PRES   REMARKS
FREDERICK*     PTSUNNY   90  75  62 S6        30.00F HX 100
HAGERSTOWN APT PTSUNNY   87  69  54 S8        29.98F HX  91
WESTMINSTER*   PTSUNNY   86  75  70 NW3       30.00F HX  95

$$

MDZ501>502-292000-
WESTERN MARYLAND

CITY           SKY/WX    TMP DP  RH WIND       PRES   REMARKS
OAKLAND*       CLOUDY    75 N/A N/A CALM      30.10S HAZE
CUMBERLAND*    PTSUNNY   90  70  51 SW3       30.01F HX  95

$$

VAZ025>031-292000-
SHENANDOAH VALLEY

CITY           SKY/WX    TMP DP  RH WIND       PRES   REMARKS
WINCHESTER*    PTSUNNY   90  72  55 SE5       29.98F HX  96
FRONT ROYAL*   FAIR      86  73  66 CALM      29.97F HX  93
LURAY*         FAIR      91  70  49 SW7       29.98F HX  97
NEW MARKET*    FAIR      87  72  60 SW5       29.96F HX  93
STAUNTON*      PTSUNNY   89  71  56 S6        30.03S HX  94
WAYNESBORO*    FAIR      83  73  70 CALM      30.03S

$$

WVZ021-048>050-054>055-292000-
EASTERN WEST VIRGINIA PANHANDLE

CITY           SKY/WX    TMP DP  RH WIND       PRES   REMARKS
MARTINSBURG    PTSUNNY   85  72  65 MISG      29.98F HX  91
PETERSBURG*    PTSUNNY  N/A N/A N/A W5        29.99F

$$

VAZ036>039-050-292000-
CENTRAL FOOTHILLS

CITY           SKY/WX    TMP DP  RH WIND       PRES   REMARKS
CHARLOTTESVILL PTSUNNY   85  73  67 S9        29.99F HX  91
CULPEPER*      PTSUNNY   84  74  72 S8        29.98F HX  91
ORANGE*        CLOUDY    86  77  74 SE9       30.00F HX  97
GORDONSVILLE*  MOCLDY    84  75  74 S10       29.98F HX  92
WARRENTON*     PTSUNNY   86  77  73 S5        29.98F HX  97

$$

VAZ055>057-292000-
NORTH AND CENTRAL PIEDMONT

CITY           SKY/WX    TMP DP  RH WIND       PRES   REMARKS
FREDERICKSBRG* PTSUNNY   88  74  62 S15       29.98F HX  97
STAFFORD*      PTSUNNY   88  72  60 S8        30.02F HX  94

$$

NCZ024-NYZ072-PAZ021-071-VAZ022-071-292000-
OTHER REGIONAL OBSERVATIONS

CITY           SKY/WX    TMP DP  RH WIND       PRES   REMARKS
NEW YORK CITY  SUNNY     94  63  35 W8        29.97F HX  95
PHILADELPHIA   PTSUNNY   92  69  47 SW9       29.97F HX  97
PITTSBURGH     CLOUDY    89  67  47 S6        29.98F HX  92
ROANOKE        PTSUNNY   86  70  58 SE7       30.03F HX  90
RICHMOND       CLOUDY    83  73  72 SW8       30.01F
RALEIGH        MOSUNNY   88  70  55 CALM      30.01F HX  93

$$

ANZ530>537-292000-
MARINE OBSERVATIONS

STATION/POSITION TIME  TEMP    WIND        PRES
                       AIR SEA DIR/SP/G
                 (UTC) (F)     (DEG/KT/KT) (MB)
THOMAS PT LIGHT  NOT AVBL
BALT KEY BRIDGE  1800   78                   N/A
COVE POINT       1800   81                   N/A
LEWISETTA        1800   85                   N/A

$$




USA.gov is the U.S. government's official web portal to all federal, state and local government web resources and services.